Location: Newark
(49.8348°N, 24.0280°E)
Time: 16:44:48
(UTC+00:00)

S-56A Canister/Altair - Pass Details

Date: 03 February 2020
Orbit: 633 x 2499 km, 38.9° (Epoch: 21 February)

Event Time Altitude Azimuth Distance (km) Brightness Sun altitude
Rises 19:56:32 0° 266° (W) 4,138 11.8 -43.5°
Reaches altitude 10° 20:00:33 10° 251° (WSW) 2,829 10.7 -44.1°
Enters shadow 20:01:03 11° 248° (WSW) 2,682 10.5 -44.1°
Maximum altitude 20:04:56 19° 208° (SSW) 1,923 - -44.7°
Drops below altitude 10° 20:08:32 10° 163° (SSE) 2,249 - -45.2°
Sets 20:11:17 0° 145° (SE) 3,029 - -45.5°
